SCP
-0 -0 -0 -0 -0 -0 -0 -0 -0 -0 -0 -0 -0 -0 -0 -0 0 0 0 0 0 0 0 0 0 0 0 0 0 0 0 0 0 0 0 0 0 0 0 0 0 0 0 0 0 0 0 0 0 0 0 0 0 0
-0 -0 -0 -0 -0 -0 0 0 0 -0 -0 -0 -0 0 -0 -0 0 0 0 0 0 0 0 0 0 0 0 0 0 0 0 0 0 0 0 0 0 0 0 0 -0 0 0 0 0 0 0 0 0 0 0 0 0 0
-0 -0 -0 -0 -0 -0 -0 -0 0 -0 -0 -0 0 0 0 -0 0 -0 0 0 0 0 -0 -0 0 0 0 0 0 0 0 -0 0 0 0 0 0 0 0 0 0 0 0 0 0 0 0 0 0 0 0 0 -0 -0
-0 -0 -0 -0 -0 -0 -0 -0 -0 -0 -0 -0 0 0 0 -0 0 -0 -0 0 0 0 0 0 0 0 -0 0 0 0 0 0 0 0 0 0 0 0 0 0 0 0 0 0 0 0 0 0 0 -0 0 -0 0 0
-0 -0 -0 -0 -0 -0 0 -0 -0 -0 -0 -0 -0 -0 -0 -0 -0 -0 0 -0 0 0 0 0 0 0 0 0 0 0 0 0 0 0 0 0 0 0 0 0 0 0 0 0 0 0 0 0 0 0 0 0 0 0
-0 0 0 -0 -0 0 0 -0 -0 -0 -0 -0 -0 -0 -0 0 -0 0 0 -0 0 0 -0 0 0 0 -0 0 0 0 0 0 0 0 0 0 0 0 0 0 0 0 0 0 0 0 0 0 0 0 0 0 0 0
-0 -0 0 0 0 -0 -0 0 0 -0 -0 0 -0 0 0 -0 -0 0 0 -0 0 0 0 -0 0 0 -0 0 0 0 0 0 0 0 0 0 0 0 0 0 0 0 0 0 0 0 0 0 0 0 0 0 0 0
0 0 0 0 0 0 -0 0 0 0 0 -0 -0 -0 0 0 0 0 0 0 0 0 0 0 0 0 0 0 0 0 0 0 0 0 0 0 0 0 0 0 0 0 0 0 0 0 0 0 0 0 0 0 0 0
0 -0 -0 -0 -0 0 -0 0 0 0 0 0 0 -0 0 0 0 0 0 0 0 0 0 0 0 0 0 0 0 0 0 0 0 0 0 0 0 0 0 0 0 0 0 0 0 0 0 0 0 0 0 0 0 0
0 0 0 -0 0 0 -0 0 0 0 0 0 0 0 0 0 -0 0 0 0 0 0 0 0 0 0 0 0 0 0 0 0 0 0 0 0 0 0 0 0 0 0 0 0 0 0 0 0 0 0 0 0 0 0
0 -0 -0 -0 0 -0 0 0 0 0 0 0 0 0 0 0 0 0 0 0 0 0 0 0 0 0 0 0 0 0 0 0 0 0 0 0 0 0 0 0 0 0 0 0 0 0 0 0 0 0 0 0 0 0
0 0 -0 0 0 0 0 0 0 0 0 0 0 0 0 0 0 0 0 0 0 0 0 0 0 0 0 0 0 0 0 0 0 0 0 0 0 0 0 0 0 0 0 0 0 0 0 0 0 0 0 0 0 0
0 0 0 0 0 -0 0 0 0 -0 0 0 0 0 0 0 0 0 0 0 0 0 0 0 0 0 0 0 0 0 0 0 0 0 0 0 0 0 0 0 0 0 0 0 0 0 0 0 0 0 0 0 0 0
0 0 0 0 0 0 0 0 0 0 0 0 0 0 0 0 0 0 0 0 0 0 0 0 0 0 0 0 0 0 0 0 0 0 0 0 0 0 0 0 0 0 0 0 0 0 0 0 0 0 0 0 0 0
0 0 0 0 0 0 0 0 0 0 0 0 0 0 0 0 0 0 0 0 0 0 0 0 0 0 0 0 0 0 0 0 0 0 0 0 0 0 0 0 0 0 0 0 0 0 0 0 0 0 0 0 0 0
0 0 0 0 0 0 0 0 0 0 0 0 0 -0 0 0 0 0 0 0 0 0 0 0 0 0 0 0 0 0 0 0 0 0 0 0 0 0 0 0 0 0 0 0 0 0 0 0 0 0 0 0 0 0
0 0 0 -0 -0 0 0 0 -0 -0 -0 -0 0 0 0 0 0 0 0 0 0 0 0 0 0 0 0 0 0 0 0 0 0 0 0 0 0 0 0 0 0 0 0 0 0 0 0 0 0 0 0 0 0 0
0 -0 -0 -0 0 0 0 0 0 -0 0 0 0 0 0 0 0 0 0 0 0 0 0 0 0 0 0 0 -0 0 0 0 0 0 0 0 0 0 0 0 0 0 0 0 0 0 0 0 0 0 0 0 0 0
0 0 0 -0 0 0 0 0 0 0 0 0 0 0 0 0 0 0 0 0 0 0 0 0 0 0 0 0 0 0 0 0 0 0 0 0 0 0 0 0 0 0 0 0 0 0 0 0 0 0 0 0 0 0
-0 -0 -0 0 0 0 -0 0 0 0 0 0 0 0 0 0 0 0 0 0 0 0 0 0 0 0 0 0 0 0 0 0 0 0 0 0 0 0 0 0 0 0 0 0 0 0 0 0 0 0 0 0 0 0
0 0 0 0 0 0 -0 -0 -0 -0 -0 0 0 0 0 0 0 0 0 0 0 0 0 0 0 0 0 0 0 0 0 -0 0 0 0 0 0 0 0 0 0 0 0 0 0 0 0 0 0 0 0 0 0 0
0 0 0 0 -0 -0 -0 0 0 -0 0 -0 0 0 0 0 0 0 0 0 0 0 0 0 -0 -0 -0 -0 -0 -0 -0 -0 -0 0 0 0 0 0 0 0 0 0 0 0 0 0 0 0 0 0 0 0 0 0
0 0 0 0 0 0 0 0 0 0 0 0 0 0 0 0 0 0 0 0 0 0 0 -0 -0 -0 -0 -0 -0 -0 0 0 0 0 0 0 0 0 0 0 0 0 0 0 0 0 0 0 0 0 0 0 0 0
0 0 0 0 0 0 0 0 0 0 0 0 0 0 0 0 0 0 0 0 0 0 0 0 -0 -0 -0 0 0 0 0 0 0 0 0 0 0 0 0 0 0 0 0 0 0 0 0 0 0 0 0 0 0 0
0 0 0 0 0 0 0 0 0 0 0 0 0 0 0 0 -0 -0 -0 -0 0 0 0 -0 0 0 0 0 0 0 0 0 0 0 0 0 0 0 0 0 0 0 0 0 0 0 0 0 0 0 0 0 0 0
0 0 0 0 0 0 0 0 0 -0 -0 0 -0 0 0 -0 0 0 0 0 0 0 0 0 0 0 0 0 0 0 0 0 0 0 0 0 0 0 0 0 0 0 0 0 0 0 0 0 0 0 0 0 0 0
0 0 0 0 0 0 -0 -0 -0 -0 -0 -0 -0 -0 -0 0 -0 -0 0 0 0 0 0 0 0 0 0 0 0 0 0 0 0 0 0 0 0 0 0 0 0 0 0 0 0 0 0 0 0 0 0 0 0 0
0 0 0 0 0 0 0 0 -0 -0 0 0 0 0 -0 0 0 0 0 0 0 0 0 0 0 0 0 0 0 0 0 0 0 0 0 0 0 0 0 0 0 0 0 0 0 0 0 0 0 0 0 0 0 0
0 0 0 0 0 0 0 0 0 0 0 -0 -0 0 0 0 0 0 0 0 0 0 0 0 0 0 0 0 0 0 0 0 0 0 0 0 0 0 0 0 0 0 0 0 0 0 0 0 0 0 0 0 0 0
0 0 0 0 0 0 -0 -0 -0 0 0 0 0 0 0 0 0 0 0 0 0 0 0 0 0 0 0 0 0 0 0 0 0 0 0 0 0 0 0 0 0 0 0 0 0 0 0 0 0 0 0 0 0 0
0 0 0 0 0 -0 -0 -0 -0 -0 0 0 0 0 0 0 0 0 0 0 0 0 0 0 0 0 0 0 0 0 0 0 0 0 0 0 0 0 0 0 0 0 0 0 0 0 0 0 0 0 0 0 0 0
0 0 0 -0 -0 0 0 0 0 0 0 0 0 0 0 0 0 0 0 0 0 0 0 0 0 0 0 0 0 0 0 0 0 0 0 0 0 0 0 0 0 0 0 0 0 0 0 0 0 0 0 0 0 0
-0 -0 -0 0 0 0 0 0 0 0 0 0 0 0 0 0 0 0 0 0 0 0 0 0 0 0 0 0 0 0 0 0 0 0 0 0 0 0 0 0 0 0 0 0 0 0 0 0 0 0 0 0 0 0
Wind_Speed_500mb
71 74 74 77 77 82 77 73 75 81 81 77 70 65 62 62 61 60 58 48 59 35 58 41 43 42 32 13 8 4 6 11 9 11 10 12 8 8 11 5 30 26 20 17 25 20 25 16 5 15 17 9 16 17
72 73 73 75 81 71 68 57 58 57 77 78 74 68 67 66 65 62 58 50 54 45 31 31 58 61 44 40 24 15 19 5 25 14 12 5 8 4 15 10 24 18 20 15 22 17 6 7 15 17 14 15 19 22
73 73 75 76 77 79 60 55 49 50 63 77 73 70 67 65 64 69 63 54 53 49 41 54 60 40 45 61 53 17 17 14 16 22 4 7 9 7 9 18 11 19 19 9 2 14 18 11 14 14 19 21 22 25
63 72 59 53 52 42 38 38 42 42 63 75 72 69 67 67 69 71 76 64 58 17 12 39 35 50 67 53 54 63 52 35 25 19 6 3 8 8 9 18 12 14 6 19 16 18 15 15 16 15 19 24 28 30
60 38 38 39 38 35 28 27 44 41 56 65 66 65 65 68 69 72 77 80 70 54 10 30 39 46 37 56 56 49 49 34 19 8 4 6 8 7 13 14 15 17 13 11 7 21 17 16 19 18 26 28 30 33
27 35 46 47 39 28 29 26 37 44 50 60 61 61 63 70 67 65 41 84 91 73 18 7 15 13 30 37 45 46 41 30 24 6 5 9 18 6 6 9 20 14 16 18 8 14 16 21 20 20 21 25 25 25
28 36 38 34 20 39 31 32 27 46 55 53 58 49 44 56 61 56 17 22 86 66 17 9 8 2 24 27 28 31 35 19 12 9 9 5 5 12 6 15 13 12 12 13 16 23 3 19 12 15 18 18 16 13
25 27 26 23 23 31 38 38 36 35 45 58 58 53 51 56 69 46 25 24 69 61 16 6 5 11 24 14 10 21 12 18 11 6 5 8 10 8 5 11 11 15 13 2 13 15 13 14 9 15 17 17 11 11
28 14 13 25 7 34 42 46 45 44 48 48 45 60 61 52 34 17 31 70 63 16 12 8 9 8 24 15 17 15 12 3 5 6 6 7 8 6 7 10 13 18 16 19 22 14 7 9 11 15 16 15 10 12
14 12 20 7 16 40 52 47 54 51 53 65 81 38 14 30 45 43 42 14 11 12 11 7 19 6 19 25 19 15 12 8 6 9 8 9 6 16 11 10 11 14 17 19 19 8 17 11 10 13 13 13 11 11
14 22 30 28 34 51 57 53 63 68 84 64 15 11 56 58 38 16 11 10 11 9 16 10 20 10 9 10 9 16 6 8 7 8 6 9 7 8 9 10 10 13 14 14 12 9 9 7 9 9 15 16 17 19
38 25 32 40 57 60 66 60 72 54 26 19 50 58 27 12 8 8 7 7 8 8 8 9 13 8 11 7 1 7 6 5 6 13 7 5 8 11 10 10 11 12 14 16 15 13 14 17 18 20 21 24 25 28
34 37 44 55 58 60 61 58 39 54 85 65 20 10 5 6 4 8 12 7 8 6 8 6 7 9 6 3 3 4 8 8 12 7 3 7 15 12 12 13 17 18 17 20 21 22 24 25 25 27 33 32 32 36
41 48 48 52 60 76 57 61 68 57 18 8 6 9 8 6 6 6 9 8 9 6 9 8 10 4 5 5 1 5 5 5 8 9 7 11 15 13 15 15 16 21 24 27 29 31 35 37 39 39 38 36 34 33
33 42 58 53 67 75 56 31 18 8 12 13 13 8 7 7 9 8 6 4 7 2 3 8 9 4 4 4 1 5 8 6 9 8 8 19 17 17 19 20 22 24 26 29 29 34 37 37 38 39 35 34 33 32
27 26 30 30 31 24 14 8 16 13 13 12 14 8 4 9 12 13 13 13 9 4 4 5 4 6 3 2 3 6 4 8 7 9 24 22 22 23 25 26 27 28 29 31 34 36 36 35 35 34 30 27 25 22
10 16 31 18 20 21 20 15 14 18 13 10 10 16 11 15 14 12 10 11 8 9 4 1 5 7 2 6 6 10 7 11 25 27 25 25 26 27 29 31 31 31 31 31 31 30 29 28 27 24 25 22 21 21
11 12 13 16 19 21 22 18 15 13 14 16 10 17 21 18 14 16 14 19 10 6 7 6 4 8 8 5 7 11 29 31 30 30 29 29 29 29 28 28 27 26 27 26 25 23 22 18 17 17 17 16 16 16
13 11 9 7 6 8 11 12 13 12 14 11 13 13 15 19 21 19 18 18 22 18 12 9 10 8 7 12 26 29 29 30 33 31 29 28 28 28 27 26 24 23 22 19 16 15 15 16 13 11 9 8 8 7
13 13 11 8 7 11 12 12 13 15 8 11 16 20 14 14 16 22 25 27 23 14 15 10 8 19 24 27 27 31 31 31 32 31 27 23 22 22 20 18 17 17 16 15 14 13 10 11 10 8 8 7 5 5
17 17 17 17 21 22 14 10 13 14 15 13 17 18 18 28 31 27 23 21 26 14 11 18 23 29 33 34 34 34 29 23 17 22 24 23 18 17 16 15 14 12 10 8 8 10 10 8 7 7 7 7 6 5
14 13 10 17 13 12 15 18 18 19 14 23 20 14 12 17 19 24 30 26 16 25 16 23 24 27 31 31 28 25 24 24 26 27 24 22 18 14 12 10 9 9 9 7 6 5 5 5 5 5 6 6 7 5
14 11 12 12 12 11 11 5 6 5 7 9 8 7 8 9 10 11 13 17 16 19 21 24 28 28 31 30 30 29 25 24 23 21 19 17 16 14 12 11 9 7 6 6 5 3 3 4 5 4 3 4 2 1
9 9 10 9 12 9 9 6 8 8 9 6 6 8 6 9 13 13 9 10 11 14 19 21 23 27 27 25 25 24 21 20 20 18 15 12 11 10 9 8 7 7 7 4 4 3 2 1 5 1 1 1 4 3
8 15 10 10 7 7 8 6 5 6 7 6 6 7 6 5 6 7 6 10 13 13 14 15 17 17 20 20 18 17 18 13 12 13 13 11 9 8 7 6 6 4 5 4 2 2 1 0 1 1 2 3 5 5
13 18 11 6 5 4 5 8 6 8 7 6 7 9 5 5 7 11 7 17 16 16 16 16 17 17 18 15 14 12 10 11 9 9 9 8 7 5 2 1 3 7 5 1 2 3 6 6 6 7 6 10 13 10
8 8 11 11 5 11 12 15 17 10 7 6 6 5 5 7 8 7 18 17 18 16 14 14 13 13 14 14 13 10 8 7 7 4 3 4 3 1 4 3 0 5 6 5 4 3 4 6 8 8 9 9 10 12
11 12 7 9 15 19 8 8 7 7 6 6 6 7 6 5 6 11 14 20 20 18 17 18 18 17 16 14 11 9 8 6 6 7 6 6 6 6 5 5 5 6 8 8 9 10 9 9 9 10 12 12 14 15
11 10 13 15 15 19 20 11 8 8 6 4 5 6 8 11 14 23 23 20 19 18 18 17 17 15 13 10 8 6 4 5 3 5 4 2 3 10 9 9 11 12 12 11 13 12 11 12 12 13 14 15 15 18
9 10 12 16 11 12 16 16 16 11 12 18 27 47 46 30 27 25 22 21 19 18 15 15 14 10 9 6 4 3 3 4 3 2 2 1 4 11 12 14 15 16 14 12 11 12 17 15 15 15 15 16 14 15
8 9 13 15 12 25 31 31 37 42 43 44 34 42 33 20 19 21 20 19 19 18 16 13 12 9 6 6 3 2 6 5 6 6 7 9 11 13 15 15 15 14 13 12 13 13 13 14 14 16 16 18 20 22
11 9 14 11 18 18 9 16 23 34 30 29 24 24 21 15 10 7 17 17 13 11 15 11 6 4 2 1 0 1 3 5 7 9 11 12 13 13 13 12 12 12 12 13 13 14 15 16 17 19 20 21 23 24
38 41 40 29 15 13 10 12 10 12 12 9 7 7 8 6 8 8 22 24 25 16 12 12 8 5 3 1 1 2 4 7 10 12 12 11 10 10 9 10 11 11 12 14 15 17 18 19 21 22 24 25 26 27
Wind_Direction_500mb
287 286 284 283 279 281 277 270 265 250 231 230 230 229 225 222 220 219 225 218 214 233 250 255 260 258 264 243 228 63 152 182 178 214 238 230 237 239 244 225 187 183 190 207 228 235 241 256 164 245 49 39 27 5
288 285 283 281 283 285 283 270 254 246 232 221 222 222 220 219 219 216 223 221 221 221 246 247 251 255 261 259 261 231 254 275 201 218 234 181 261 190 261 235 205 200 206 200 194 218 156 118 86 67 29 6 9 6
288 287 283 280 279 284 277 261 249 244 219 211 214 217 217 215 216 216 218 213 215 225 251 253 253 248 247 236 245 228 233 217 258 234 294 267 238 234 232 245 213 201 238 253 174 198 224 135 83 53 19 4 1 359
302 294 291 282 276 272 274 259 232 221 205 205 208 213 216 217 216 216 219 212 210 205 241 259 257 244 243 241 237 238 245 267 290 278 255 280 258 283 246 255 279 269 315 242 236 251 270 173 84 37 0 351 348 348
297 295 284 285 272 260 265 251 217 208 201 203 209 213 216 219 217 216 218 218 209 198 224 244 241 249 241 220 231 228 226 241 266 220 180 237 268 276 272 285 268 250 281 246 256 41 348 51 15 14 2 358 352 348
302 299 297 292 257 250 242 230 213 202 199 202 205 208 210 212 211 206 202 221 214 211 255 274 247 249 211 209 213 223 221 223 232 265 216 241 241 241 284 251 253 67 57 31 50 352 346 334 13 29 9 358 348 351
291 299 292 308 262 232 224 205 200 201 199 194 195 203 201 188 189 188 164 201 205 200 217 231 245 163 181 187 208 220 223 210 225 214 204 272 267 207 250 250 106 58 27 22 14 351 3 23 342 348 348 343 346 1
306 298 313 300 252 213 202 193 186 173 184 195 200 196 180 175 179 185 205 201 188 187 211 245 139 145 171 179 189 184 186 206 216 197 219 243 260 231 233 16 34 24 350 88 1 341 309 307 300 323 325 332 0 22
324 322 348 335 275 193 177 180 176 172 172 167 162 164 159 158 155 144 143 166 162 164 178 221 189 174 178 178 192 168 172 188 155 223 227 214 203 219 52 22 28 8 6 334 328 317 339 356 352 354 359 5 22 26
360 349 328 2 147 155 164 158 165 164 149 149 145 136 125 154 164 128 143 147 151 197 224 231 209 142 188 181 193 166 185 202 207 194 173 208 87 86 70 49 14 358 358 353 354 23 360 360 8 10 20 31 51 62
61 31 61 59 125 144 144 146 150 152 152 137 138 129 141 154 150 177 145 174 162 197 186 222 193 132 186 195 185 202 195 181 227 164 214 189 108 88 58 38 13 11 15 21 29 31 28 32 64 76 69 74 82 91
52 65 67 103 120 134 136 141 148 144 140 141 122 128 128 122 150 162 135 112 192 170 139 173 184 132 148 153 190 193 199 195 265 152 207 161 98 89 76 55 41 41 52 57 68 72 75 79 86 93 93 91 94 100
71 80 86 89 130 132 139 137 124 120 123 115 93 66 44 36 143 189 156 160 147 105 130 126 126 129 130 141 200 242 216 199 138 196 84 61 99 79 69 77 70 69 77 82 80 83 86 90 104 102 98 101 103 103
93 105 106 98 104 122 126 129 123 123 110 90 93 77 12 96 75 40 23 55 71 51 97 106 120 129 117 166 309 249 60 193 191 198 103 103 88 87 80 80 93 84 86 88 88 89 91 92 92 94 97 102 104 100
98 113 114 100 123 122 128 132 147 193 67 61 42 65 69 90 66 46 35 94 71 79 128 120 99 101 95 140 4 148 193 164 12 60 89 108 112 107 100 98 96 93 90 87 91 95 97 99 97 97 98 101 103 103
108 130 147 142 155 176 204 185 147 88 64 62 45 103 50 118 83 59 37 66 32 15 118 102 130 137 100 135 134 24 315 55 82 88 105 114 106 103 102 101 100 101 98 99 100 102 103 102 101 99 101 100 98 95
111 123 97 145 167 144 147 159 52 55 60 53 67 46 55 61 48 44 21 3 355 311 65 43 69 47 173 74 79 12 29 97 105 104 105 112 113 110 110 107 105 103 103 102 102 101 99 95 89 88 85 80 76 70
123 150 134 114 94 111 97 53 74 74 68 50 76 66 71 57 52 42 27 15 24 62 44 65 62 52 30 55 96 107 96 95 95 100 103 105 106 110 110 108 110 108 106 106 100 94 89 90 87 86 87 83 72 67
146 144 130 125 96 90 77 56 60 88 72 78 68 74 74 61 48 48 48 52 66 76 89 59 51 42 53 76 109 114 115 114 110 103 99 110 117 118 117 114 111 107 104 98 99 99 95 98 93 88 84 87 84 70
104 126 132 121 98 83 80 66 74 84 84 96 74 69 73 53 50 52 52 51 61 60 54 45 47 63 83 87 102 110 114 118 118 112 104 101 99 99 98 101 99 95 92 90 88 86 80 73 66 81 98 108 96 72
92 102 95 92 65 68 79 80 74 98 112 97 103 94 83 68 55 47 43 41 54 37 68 75 82 79 95 100 104 106 105 110 109 119 123 116 107 100 93 89 91 96 96 90 80 77 78 79 69 74 76 80 90 99
116 110 73 54 78 75 71 42 104 120 97 112 96 95 86 69 52 43 49 55 69 40 56 88 95 96 90 88 91 96 107 116 111 111 107 98 103 101 96 89 94 90 86 83 94 104 102 99 92 85 78 85 103 140
105 74 58 53 82 76 108 128 93 80 99 107 115 84 68 74 59 62 76 56 72 55 78 90 95 101 101 100 100 95 94 98 97 97 97 98 96 92 89 81 78 82 82 71 87 114 175 113 158 107 101 104 128 22
95 66 53 55 65 94 111 73 88 90 92 77 72 81 64 75 90 71 73 73 71 84 90 97 102 102 98 94 90 86 84 92 95 92 89 93 93 87 88 82 75 83 91 89 89 97 111 184 92 325 203 224 239 219
97 18 30 72 76 103 99 94 74 81 86 87 90 91 95 127 80 83 92 114 119 105 103 103 106 110 110 105 98 89 86 90 97 93 78 80 83 75 66 73 67 52 55 10 0 342 292 88 350 253 279 273 255 280
75 24 26 38 67 90 98 109 109 107 99 86 78 102 111 88 80 95 97 139 129 120 113 113 116 114 106 104 108 99 80 78 91 92 65 56 61 63 39 353 336 331 339 13 340 292 294 291 285 291 300 313 307 292
81 63 57 42 46 100 101 79 79 79 79 87 107 111 109 82 91 92 129 122 136 126 121 111 116 128 129 116 109 104 94 97 118 104 45 19 14 52 94 81 195 277 317 314 318 315 299 304 302 301 303 307 306 300
70 37 80 41 71 44 76 60 54 60 74 53 91 57 73 69 105 120 137 139 135 132 124 121 116 119 119 119 116 110 105 85 58 42 33 26 19 22 15 354 335 320 315 313 303 298 292 297 295 294 297 296 295 301
68 78 87 47 61 54 38 35 57 55 24 17 101 93 100 88 110 127 128 128 127 125 125 126 124 125 126 132 135 125 96 62 59 22 33 25 340 320 334 332 330 330 328 327 324 317 313 310 300 294 291 294 291 297
64 40 90 54 55 49 39 47 74 65 81 92 103 111 104 94 91 108 111 118 125 126 127 136 131 122 120 102 98 40 6 5 12 97 353 321 272 303 311 315 319 322 322 319 309 303 316 322 319 320 318 314 307 300
76 72 77 70 81 87 95 94 85 82 89 98 105 108 112 115 103 117 126 130 133 130 129 133 133 124 97 87 100 27 329 340 338 329 319 312 309 306 310 313 316 319 320 321 320 318 317 320 315 312 312 310 311 314
44 72 122 109 123 142 101 98 79 92 92 93 99 102 108 109 105 145 157 134 123 130 148 124 126 160 127 118 327 289 290 316 324 325 320 315 312 314 315 318 321 324 326 325 324 323 322 320 317 315 312 311 310 310
97 98 103 100 120 148 162 141 110 108 97 97 95 101 88 87 121 165 173 169 159 163 165 171 159 149 134 93 21 337 324 329 330 330 327 323 322 326 331 334 335 336 336 332 328 324 322 319 316 314 312 310 310 310
Wind_Speed_850mb
71 74 74 77 77 82 77 73 75 81 81 77 70 65 62 62 61 60 58 48 59 35 58 41 43 42 32 13 8 4 6 11 9 11 10 12 8 8 11 5 30 26 20 17 25 20 25 16 5 15 17 9 16 17
72 73 73 75 81 71 68 57 58 57 77 78 74 68 67 66 65 62 58 50 54 45 31 31 58 61 44 40 24 15 19 5 25 14 12 5 8 4 15 10 24 18 20 15 22 17 6 7 15 17 14 15 19 22
73 73 75 76 77 79 60 55 49 50 63 77 73 70 67 65 64 69 63 54 53 49 41 54 60 40 45 61 53 17 17 14 16 22 4 7 9 7 9 18 11 19 19 9 2 14 18 11 14 14 19 21 22 25
63 72 59 53 52 42 38 38 42 42 63 75 72 69 67 67 69 71 76 64 58 17 12 39 35 50 67 53 54 63 52 35 25 19 6 3 8 8 9 18 12 14 6 19 16 18 15 15 16 15 19 24 28 30
60 38 38 39 38 35 28 27 44 41 56 65 66 65 65 68 69 72 77 80 70 54 10 30 39 46 37 56 56 49 49 34 19 8 4 6 8 7 13 14 15 17 13 11 7 21 17 16 19 18 26 28 30 33
27 35 46 47 39 28 29 26 37 44 50 60 61 61 63 70 67 65 41 84 91 73 18 7 15 13 30 37 45 46 41 30 24 6 5 9 18 6 6 9 20 14 16 18 8 14 16 21 20 20 21 25 25 25
28 36 38 34 20 39 31 32 27 46 55 53 58 49 44 56 61 56 17 22 86 66 17 9 8 2 24 27 28 31 35 19 12 9 9 5 5 12 6 15 13 12 12 13 16 23 3 19 12 15 18 18 16 13
25 27 26 23 23 31 38 38 36 35 45 58 58 53 51 56 69 46 25 24 69 61 16 6 5 11 24 14 10 21 12 18 11 6 5 8 10 8 5 11 11 15 13 2 13 15 13 14 9 15 17 17 11 11
28 14 13 25 7 34 42 46 45 44 48 48 45 60 61 52 34 17 31 70 63 16 12 8 9 8 24 15 17 15 12 3 5 6 6 7 8 6 7 10 13 18 16 19 22 14 7 9 11 15 16 15 10 12
14 12 20 7 16 40 52 47 54 51 53 65 81 38 14 30 45 43 42 14 11 12 11 7 19 6 19 25 19 15 12 8 6 9 8 9 6 16 11 10 11 14 17 19 19 8 17 11 10 13 13 13 11 11
14 22 30 28 34 51 57 53 63 68 84 64 15 11 56 58 38 16 11 10 11 9 16 10 20 10 9 10 9 16 6 8 7 8 6 9 7 8 9 10 10 13 14 14 12 9 9 7 9 9 15 16 17 19
38 25 32 40 57 60 66 60 72 54 26 19 50 58 27 12 8 8 7 7 8 8 8 9 13 8 11 7 1 7 6 5 6 13 7 5 8 11 10 10 11 12 14 16 15 13 14 17 18 20 21 24 25 28
34 37 44 55 58 60 61 58 39 54 85 65 20 10 5 6 4 8 12 7 8 6 8 6 7 9 6 3 3 4 8 8 12 7 3 7 15 12 12 13 17 18 17 20 21 22 24 25 25 27 33 32 32 36
41 48 48 52 60 76 57 61 68 57 18 8 6 9 8 6 6 6 9 8 9 6 9 8 10 4 5 5 1 5 5 5 8 9 7 11 15 13 15 15 16 21 24 27 29 31 35 37 39 39 38 36 34 33
33 42 58 53 67 75 56 31 18 8 12 13 13 8 7 7 9 8 6 4 7 2 3 8 9 4 4 4 1 5 8 6 9 8 8 19 17 17 19 20 22 24 26 29 29 34 37 37 38 39 35 34 33 32
27 26 30 30 31 24 14 8 16 13 13 12 14 8 4 9 12 13 13 13 9 4 4 5 4 6 3 2 3 6 4 8 7 9 24 22 22 23 25 26 27 28 29 31 34 36 36 35 35 34 30 27 25 22
10 16 31 18 20 21 20 15 14 18 13 10 10 16 11 15 14 12 10 11 8 9 4 1 5 7 2 6 6 10 7 11 25 27 25 25 26 27 29 31 31 31 31 31 31 30 29 28 27 24 25 22 21 21
11 12 13 16 19 21 22 18 15 13 14 16 10 17 21 18 14 16 14 19 10 6 7 6 4 8 8 5 7 11 29 31 30 30 29 29 29 29 28 28 27 26 27 26 25 23 22 18 17 17 17 16 16 16
13 11 9 7 6 8 11 12 13 12 14 11 13 13 15 19 21 19 18 18 22 18 12 9 10 8 7 12 26 29 29 30 33 31 29 28 28 28 27 26 24 23 22 19 16 15 15 16 13 11 9 8 8 7
13 13 11 8 7 11 12 12 13 15 8 11 16 20 14 14 16 22 25 27 23 14 15 10 8 19 24 27 27 31 31 31 32 31 27 23 22 22 20 18 17 17 16 15 14 13 10 11 10 8 8 7 5 5
17 17 17 17 21 22 14 10 13 14 15 13 17 18 18 28 31 27 23 21 26 14 11 18 23 29 33 34 34 34 29 23 17 22 24 23 18 17 16 15 14 12 10 8 8 10 10 8 7 7 7 7 6 5
14 13 10 17 13 12 15 18 18 19 14 23 20 14 12 17 19 24 30 26 16 25 16 23 24 27 31 31 28 25 24 24 26 27 24 22 18 14 12 10 9 9 9 7 6 5 5 5 5 5 6 6 7 5
14 11 12 12 12 11 11 5 6 5 7 9 8 7 8 9 10 11 13 17 16 19 21 24 28 28 31 30 30 29 25 24 23 21 19 17 16 14 12 11 9 7 6 6 5 3 3 4 5 4 3 4 2 1
9 9 10 9 12 9 9 6 8 8 9 6 6 8 6 9 13 13 9 10 11 14 19 21 23 27 27 25 25 24 21 20 20 18 15 12 11 10 9 8 7 7 7 4 4 3 2 1 5 1 1 1 4 3
8 15 10 10 7 7 8 6 5 6 7 6 6 7 6 5 6 7 6 10 13 13 14 15 17 17 20 20 18 17 18 13 12 13 13 11 9 8 7 6 6 4 5 4 2 2 1 0 1 1 2 3 5 5
13 18 11 6 5 4 5 8 6 8 7 6 7 9 5 5 7 11 7 17 16 16 16 16 17 17 18 15 14 12 10 11 9 9 9 8 7 5 2 1 3 7 5 1 2 3 6 6 6 7 6 10 13 10
8 8 11 11 5 11 12 15 17 10 7 6 6 5 5 7 8 7 18 17 18 16 14 14 13 13 14 14 13 10 8 7 7 4 3 4 3 1 4 3 0 5 6 5 4 3 4 6 8 8 9 9 10 12
11 12 7 9 15 19 8 8 7 7 6 6 6 7 6 5 6 11 14 20 20 18 17 18 18 17 16 14 11 9 8 6 6 7 6 6 6 6 5 5 5 6 8 8 9 10 9 9 9 10 12 12 14 15
11 10 13 15 15 19 20 11 8 8 6 4 5 6 8 11 14 23 23 20 19 18 18 17 17 15 13 10 8 6 4 5 3 5 4 2 3 10 9 9 11 12 12 11 13 12 11 12 12 13 14 15 15 18
9 10 12 16 11 12 16 16 16 11 12 18 27 47 46 30 27 25 22 21 19 18 15 15 14 10 9 6 4 3 3 4 3 2 2 1 4 11 12 14 15 16 14 12 11 12 17 15 15 15 15 16 14 15
8 9 13 15 12 25 31 31 37 42 43 44 34 42 33 20 19 21 20 19 19 18 16 13 12 9 6 6 3 2 6 5 6 6 7 9 11 13 15 15 15 14 13 12 13 13 13 14 14 16 16 18 20 22
11 9 14 11 18 18 9 16 23 34 30 29 24 24 21 15 10 7 17 17 13 11 15 11 6 4 2 1 0 1 3 5 7 9 11 12 13 13 13 12 12 12 12 13 13 14 15 16 17 19 20 21 23 24
38 41 40 29 15 13 10 12 10 12 12 9 7 7 8 6 8 8 22 24 25 16 12 12 8 5 3 1 1 2 4 7 10 12 12 11 10 10 9 10 11 11 12 14 15 17 18 19 21 22 24 25 26 27
Wind_Direction_850mb
287 286 284 283 279 281 277 270 265 250 231 230 230 229 225 222 220 219 225 218 214 233 250 255 260 258 264 243 228 63 152 182 178 214 238 230 237 239 244 225 187 183 190 207 228 235 241 256 164 245 49 39 27 5
288 285 283 281 283 285 283 270 254 246 232 221 222 222 220 219 219 216 223 221 221 221 246 247 251 255 261 259 261 231 254 275 201 218 234 181 261 190 261 235 205 200 206 200 194 218 156 118 86 67 29 6 9 6
288 287 283 280 279 284 277 261 249 244 219 211 214 217 217 215 216 216 218 213 215 225 251 253 253 248 247 236 245 228 233 217 258 234 294 267 238 234 232 245 213 201 238 253 174 198 224 135 83 53 19 4 1 359
302 294 291 282 276 272 274 259 232 221 205 205 208 213 216 217 216 216 219 212 210 205 241 259 257 244 243 241 237 238 245 267 290 278 255 280 258 283 246 255 279 269 315 242 236 251 270 173 84 37 0 351 348 348
297 295 284 285 272 260 265 251 217 208 201 203 209 213 216 219 217 216 218 218 209 198 224 244 241 249 241 220 231 228 226 241 266 220 180 237 268 276 272 285 268 250 281 246 256 41 348 51 15 14 2 358 352 348
302 299 297 292 257 250 242 230 213 202 199 202 205 208 210 212 211 206 202 221 214 211 255 274 247 249 211 209 213 223 221 223 232 265 216 241 241 241 284 251 253 67 57 31 50 352 346 334 13 29 9 358 348 351
291 299 292 308 262 232 224 205 200 201 199 194 195 203 201 188 189 188 164 201 205 200 217 231 245 163 181 187 208 220 223 210 225 214 204 272 267 207 250 250 106 58 27 22 14 351 3 23 342 348 348 343 346 1
306 298 313 300 252 213 202 193 186 173 184 195 200 196 180 175 179 185 205 201 188 187 211 245 139 145 171 179 189 184 186 206 216 197 219 243 260 231 233 16 34 24 350 88 1 341 309 307 300 323 325 332 0 22
324 322 348 335 275 193 177 180 176 172 172 167 162 164 159 158 155 144 143 166 162 164 178 221 189 174 178 178 192 168 172 188 155 223 227 214 203 219 52 22 28 8 6 334 328 317 339 356 352 354 359 5 22 26
360 349 328 2 147 155 164 158 165 164 149 149 145 136 125 154 164 128 143 147 151 197 224 231 209 142 188 181 193 166 185 202 207 194 173 208 87 86 70 49 14 358 358 353 354 23 360 360 8 10 20 31 51 62
61 31 61 59 125 144 144 146 150 152 152 137 138 129 141 154 150 177 145 174 162 197 186 222 193 132 186 195 185 202 195 181 227 164 214 189 108 88 58 38 13 11 15 21 29 31 28 32 64 76 69 74 82 91
52 65 67 103 120 134 136 141 148 144 140 141 122 128 128 122 150 162 135 112 192 170 139 173 184 132 148 153 190 193 199 195 265 152 207 161 98 89 76 55 41 41 52 57 68 72 75 79 86 93 93 91 94 100
71 80 86 89 130 132 139 137 124 120 123 115 93 66 44 36 143 189 156 160 147 105 130 126 126 129 130 141 200 242 216 199 138 196 84 61 99 79 69 77 70 69 77 82 80 83 86 90 104 102 98 101 103 103
93 105 106 98 104 122 126 129 123 123 110 90 93 77 12 96 75 40 23 55 71 51 97 106 120 129 117 166 309 249 60 193 191 198 103 103 88 87 80 80 93 84 86 88 88 89 91 92 92 94 97 102 104 100
98 113 114 100 123 122 128 132 147 193 67 61 42 65 69 90 66 46 35 94 71 79 128 120 99 101 95 140 4 148 193 164 12 60 89 108 112 107 100 98 96 93 90 87 91 95 97 99 97 97 98 101 103 103
108 130 147 142 155 176 204 185 147 88 64 62 45 103 50 118 83 59 37 66 32 15 118 102 130 137 100 135 134 24 315 55 82 88 105 114 106 103 102 101 100 101 98 99 100 102 103 102 101 99 101 100 98 95
111 123 97 145 167 144 147 159 52 55 60 53 67 46 55 61 48 44 21 3 355 311 65 43 69 47 173 74 79 12 29 97 105 104 105 112 113 110 110 107 105 103 103 102 102 101 99 95 89 88 85 80 76 70
123 150 134 114 94 111 97 53 74 74 68 50 76 66 71 57 52 42 27 15 24 62 44 65 62 52 30 55 96 107 96 95 95 100 103 105 106 110 110 108 110 108 106 106 100 94 89 90 87 86 87 83 72 67
146 144 130 125 96 90 77 56 60 88 72 78 68 74 74 61 48 48 48 52 66 76 89 59 51 42 53 76 109 114 115 114 110 103 99 110 117 118 117 114 111 107 104 98 99 99 95 98 93 88 84 87 84 70
104 126 132 121 98 83 80 66 74 84 84 96 74 69 73 53 50 52 52 51 61 60 54 45 47 63 83 87 102 110 114 118 118 112 104 101 99 99 98 101 99 95 92 90 88 86 80 73 66 81 98 108 96 72
92 102 95 92 65 68 79 80 74 98 112 97 103 94 83 68 55 47 43 41 54 37 68 75 82 79 95 100 104 106 105 110 109 119 123 116 107 100 93 89 91 96 96 90 80 77 78 79 69 74 76 80 90 99
116 110 73 54 78 75 71 42 104 120 97 112 96 95 86 69 52 43 49 55 69 40 56 88 95 96 90 88 91 96 107 116 111 111 107 98 103 101 96 89 94 90 86 83 94 104 102 99 92 85 78 85 103 140
105 74 58 53 82 76 108 128 93 80 99 107 115 84 68 74 59 62 76 56 72 55 78 90 95 101 101 100 100 95 94 98 97 97 97 98 96 92 89 81 78 82 82 71 87 114 175 113 158 107 101 104 128 22
95 66 53 55 65 94 111 73 88 90 92 77 72 81 64 75 90 71 73 73 71 84 90 97 102 102 98 94 90 86 84 92 95 92 89 93 93 87 88 82 75 83 91 89 89 97 111 184 92 325 203 224 239 219
97 18 30 72 76 103 99 94 74 81 86 87 90 91 95 127 80 83 92 114 119 105 103 103 106 110 110 105 98 89 86 90 97 93 78 80 83 75 66 73 67 52 55 10 0 342 292 88 350 253 279 273 255 280
75 24 26 38 67 90 98 109 109 107 99 86 78 102 111 88 80 95 97 139 129 120 113 113 116 114 106 104 108 99 80 78 91 92 65 56 61 63 39 353 336 331 339 13 340 292 294 291 285 291 300 313 307 292
81 63 57 42 46 100 101 79 79 79 79 87 107 111 109 82 91 92 129 122 136 126 121 111 116 128 129 116 109 104 94 97 118 104 45 19 14 52 94 81 195 277 317 314 318 315 299 304 302 301 303 307 306 300
70 37 80 41 71 44 76 60 54 60 74 53 91 57 73 69 105 120 137 139 135 132 124 121 116 119 119 119 116 110 105 85 58 42 33 26 19 22 15 354 335 320 315 313 303 298 292 297 295 294 297 296 295 301
68 78 87 47 61 54 38 35 57 55 24 17 101 93 100 88 110 127 128 128 127 125 125 126 124 125 126 132 135 125 96 62 59 22 33 25 340 320 334 332 330 330 328 327 324 317 313 310 300 294 291 294 291 297
64 40 90 54 55 49 39 47 74 65 81 92 103 111 104 94 91 108 111 118 125 126 127 136 131 122 120 102 98 40 6 5 12 97 353 321 272 303 311 315 319 322 322 319 309 303 316 322 319 320 318 314 307 300
76 72 77 70 81 87 95 94 85 82 89 98 105 108 112 115 103 117 126 130 133 130 129 133 133 124 97 87 100 27 329 340 338 329 319 312 309 306 310 313 316 319 320 321 320 318 317 320 315 312 312 310 311 314
44 72 122 109 123 142 101 98 79 92 92 93 99 102 108 109 105 145 157 134 123 130 148 124 126 160 127 118 327 289 290 316 324 325 320 315 312 314 315 318 321 324 326 325 324 323 322 320 317 315 312 311 310 310
97 98 103 100 120 148 162 141 110 108 97 97 95 101 88 87 121 165 173 169 159 163 165 171 159 149 134 93 21 337 324 329 330 330 327 323 322 326 331 334 335 336 336 332 328 324 322 319 316 314 312 310 310 310